Regional Weather Roundup
Issued by NWS Austin/San Antonio, TX

Home | Current Version | Previous Version | Text Only | Print | Product List | Glossary On
Versions: 1 2 3 4 5 6 7 8 9 10 11 12 13 14 15 16 17 18 19 20 21 22 23 24 25 26 27 28 29 30 31 32 33 34 35 36 37 38 39 40 41 42 43 44 45 46 47 48 49 50
000
ASUS44 KEWX 211611
RWREWX
SOUTH TEXAS REGIONAL WEATHER ROUNDUP
NATIONAL WEATHER SERVICE AUSTIN/SAN ANTONIO TX
1100 AM CDT MON OCT 21 2019

NOTE: "FAIR" INDICATED FEW OR NO CLOUDS BELOW 12,000 FEET WITH NO
SIGNIFICANT WEATHER AND/OR OBSTRUCTIONS TO VISIBILITY.

* - THESE STATIONS ARE NOT NWS OR FAA STATIONS...AND ARE NOT SUBJECT
    TO NWS AND FAA QUALITY CONTROL.

TXZ171-172-183>190-211700-
TEXAS HILL COUNTRY AND EDWARDS PLATEAU

CITY           SKY/WX    TMP DP  RH WIND       PRES   REMARKS
JUNCTION       SUNNY     66  38  35 N10       30.00R
*LLANO         SUNNY     68  34  28 NE12      30.00S
BURNET           N/A     67  36  31 MISG      29.97R
*HORSESHOE BAY SUNNY     68  39  34 NE6       29.98R
*KERRVILLE     SUNNY     69  34  27 N10       29.98R
*FREDERICKSBRG SUNNY     67  34  29 N12G18    29.98R
*ROCKSPRINGS   SUNNY     64  32  29 NE10G18   30.04R
*BOERNE        SUNNY     68  37  32 NE13G21   29.95R
*CASTROVILLE   SUNNY     74  33  22 NE15G21   29.94R
HONDO          SUNNY     76  39  26 NE20      29.92R
*UVALDE        SUNNY     75  34  22 NE12      29.94R
DEL RIO        SUNNY     76  28  17 NW10      29.97R
LAUGHLIN AFB   SUNNY     75  30  19 NW10      29.96R
SPOFFORD       SUNNY     76  32  19 NW13      29.90R
*EAGLE PASS    SUNNY     77  32  19 N13G18    29.96R
CARRIZO SPRGS  SUNNY     77  48  36 N9G16     29.91R
*FAITH RANCH   SUNNY     81  50  34 N12G22    29.91S
$$

TXZ173-191>194-202-209-217>225-228-211700-
CENTRAL AND SOUTH CENTRAL TEXAS

CITY           SKY/WX    TMP DP  RH WIND       PRES   REMARKS
GEORGETOWN     SUNNY     69  40  34 N13       29.97R
AUSTIN/BERGSTM MOSUNNY   74  39  28 N18       29.92R
AUSTIN/MABRY   SUNNY     73  38  27 N12G18    29.94R
*AUSTIN/EXEC   SUNNY     70  39  32 N17G26    29.94R
*LAGO VISTA    SUNNY     65  43  46 NE12G22   29.95R
SAN MARCOS     SUNNY     72  45  37 N17G29    29.93R
NEW BRAUNFELS  SUNNY     74  40  29 N22G28    29.91R
RANDOLPH AFB   SUNNY     73  40  30 N18G24    29.92R
SEGUIN         SUNNY     72  39  30 NE20G26   29.95R
KELLY FIELD    SUNNY     75  40  28 NE20G26   29.90R
SAN ANTONIO    MOSUNNY   72  38  29 N15G28    29.92R
STINSON FIELD  SUNNY     74  42  31 NE14G26   29.90R
PLEASANTON     SUNNY     74  42  31 NE20G25   29.90S
*LA GRANGE     SUNNY     73  47  40 N12G20    29.88R
*GIDDINGS      SUNNY     72  43  35 N9G24     29.91S
*GONZALES      SUNNY     72  49  43 N13G25    29.90R
$$

TXZ163>164-176>182-195>201-210>213-226-227-235-211700-
SOUTHEAST TEXAS

CITY           SKY/WX    TMP DP  RH WIND       PRES   REMARKS
COLLEGE STN    SUNNY     73  45  36 N17G26    29.88R
*BRYAN         SUNNY     71  47  42 N13G23    29.91R
*CALDWELL      SUNNY     69  43  38 N12G22    29.91R
*CROCKETT      SUNNY     66  54  63 N9        29.92R
*BRENHAM       SUNNY     71  53  51 N14G24    29.90R
HUNTSVILLE     SUNNY     69  57  65 N9        29.88R
CONROE         SUNNY     68  61  78 N8        29.88R
HOUSTON BUSH   PTSUNNY   71  63  75 N13G23    29.87R
HOUSTON HOBBY  PTSUNNY   71  64  78 N12       29.85R
*HOUSTON SW AP PTSUNNY   69  67  93 N7        29.87R
PEARLAND       FAIR      71  64  78 N7        29.87R
HOUSTON HOOKS  FAIR      69  60  73 N5        29.88R
ELLINGTON FLD  PTSUNNY   68  64  88 NW7       29.84R
SUGAR LAND     FAIR      73  66  78 N13       29.86R
*HOUSTON EXEC  FAIR      70  63  78 NE14      29.89R
*CLEVELAND MUN PTSUNNY   68  67  97 N5        29.88R
*WHARTON       MOSUNNY   71  62  74 N13       29.88R
*COLUMBUS      CLOUDY    68  56  65 N7        29.90R
*EAGLE LAKE    CLOUDY    73  67  82 NE9       29.89
$$

TXZ214>216-236>238-211700-
THE UPPER TEXAS COAST

CITY           SKY/WX    TMP DP  RH WIND       PRES   REMARKS
*ORANGE        RAIN      68  68 100 CALM      29.88F
PORT ARTHUR    HVY RAIN  68  66  93 NE7       29.84F FOG
GALVESTON      RAIN      69  67  93 N6        29.86R FOG
ANGLETON       FAIR      68  66  93 N3        29.86R
*BAY CITY      MOSUNNY   70  69  95 CALM      29.86R
PALACIOS       MOSUNNY   70  65  84 N9        29.85R
$$

TXZ229>234-239>247-211700-
TEXAS COASTAL BEND AND RIO GRANDE PLAINS

CITY           SKY/WX    TMP DP  RH WIND       PRES   REMARKS
VICTORIA       CLOUDY    73  65  75 NE14      29.88R
*BEEVILLE      CLOUDY    79  62  55 NE14G20   29.86R
ROCKPORT       MOSUNNY   75  68  78 NE13      29.83F
*PORT ARANSAS  CLOUDY    73  67  83 N21G26    29.86R
*PORT LAVACA   MOSUNNY   75  69  81 NE13      29.86S
*INGLESIDE     MOSUNNY   74  69  84 NE14G20   29.84R
CORPUS CHRISTI PTSUNNY   78  69  73 NE18      29.83R
CORPUS NAS     LGT RAIN  74  70  87 N25       29.83R FOG
*ROBSTOWN      MOSUNNY   83  64  53 N16       29.83R
ALICE          MOSUNNY   87  62  43 N17       29.82S
KINGSVILLE NAS CLOUDY    84  74  71 N9        29.81R HX  91
COTULLA        MOSUNNY   78  56  46 E12       29.89R
LAREDO         SUNNY     85  64  49 N16       29.86R
$$

TXZ248>255-211700-
DEEP SOUTH TEXAS

CITY           SKY/WX    TMP DP  RH WIND       PRES   REMARKS
BROWNSVILLE    CLOUDY    86  79  79 S15G25    29.77R HX  99
PORT ISABEL    PTSUNNY   85  79  82 SW10      29.78R HX  98
HARLINGEN      CLOUDY    84  79  85 SW12      29.79R HX  96
*HEBBRONVILLE  MOSUNNY   83  72  69 CALM      29.85R
MCALLEN        MOSUNNY   84  77  79 W6        29.81R HAZE    HX  94
*WESLACO       CLOUDY    82  77  83 SW7       29.80  HX  91
FALFURRIAS     PTSUNNY   84  74  73 CALM      29.81S HX  91
EDINBURG       PTSUNNY   81  75  82 NW8       29.82R HAZE
*ZAPATA        NOT AVBL
$$

TXZ213>215-236>238-242>244-246-247-251-254-255-211700-
CMAN STATIONS

STATION/POSITION TIME  TEMP    WIND        PRES    WAVE
                       AIR SEA DIR/SP/G            HT/PER
                 (UTC) (F)     (DEG/KT/KT) (MB)    (FT/S)
SABINE PASS      1530   69 79  320/  9/ 14 1012.5
SEA RIM ST PARK  1600   68      10/ 10/ 11 1010.2
NORTH JETTY/GLS  1530   69 77   10/ 12/ 15 1009.0
EAGLE POINT      1530   67 76   10/  5/  7 1009.8
MORGANS POINT    1530   69 78   10/  9/ 10 1010.0
PORT O`CONNOR    1530   72 79   30/ 12/ 16 1010.4
PORT ARANSAS     1600   72 79   10/ 18/ 20 1009.8
MALAQUITE BEACH  1530   83 81  290/ 10/ 12 1009.0
BAFFIN BAY       1530   78 80  290/  5/  6 1009.4
PORT ISABEL      1530   82 81  180/ 13/ 15 1008.0
$$



USA.gov is the U.S. government's official web portal to all federal, state and local government web resources and services.